This is the latest recevied weather packets stored in our database for station/object DB0FN-10. If no packets are shown the sender has not sent any weather packets the latest 10 day(s).
| Time | Temp. | Humidity | Pressure | Rain* | Wind** | Luminosity | Snow |
|---|---|---|---|---|---|---|---|
| 1777587360 | 11.67° C | 26% | 1026.5 hPa | - | - | - | - |
| 1777586460 | 12.22° C | 26% | 1026.7 hPa | - | - | - | - |
| 1777585560 | 12.22° C | 25% | 1026.7 hPa | - | - | - | - |
| 1777584660 | 12.78° C | 25% | 1026.5 hPa | - | - | - | - |
| 1777583760 | 12.22° C | 25% | 1026.5 hPa | - | - | - | - |
| 1777582860 | 12.22° C | 25% | 1026.4 hPa | - | - | - | - |
| 1777581960 | 12.22° C | 25% | 1026.4 hPa | - | - | - | - |
| 1777581060 | 12.22° C | 25% | 1026.3 hPa | - | - | - | - |
| 1777580160 | 12.78° C | 24% | 1026.4 hPa | - | - | - | - |
| 1777579260 | 12.78° C | 24% | 1026.1 hPa | - | - | - | - |
| 1777578359 | 12.78° C | 24% | 1026 hPa | - | - | - | - |
| 1777577459 | 12.78° C | 24% | 1026.1 hPa | - | - | - | - |
| 1777576559 | 13.33° C | 23% | 1026.1 hPa | - | - | - | - |
| 1777575659 | 13.33° C | 24% | 1025.8 hPa | - | - | - | - |
| 1777574759 | 13.89° C | 23% | 1025.8 hPa | - | - | - | - |
| 1777573859 | 14.44° C | 22% | 1025.7 hPa | - | - | - | - |
| 1777572959 | 14.44° C | 22% | 1025.6 hPa | - | - | - | - |
| 1777572059 | 15° C | 22% | 1025.4 hPa | - | - | - | - |
| 1777571159 | 15.56° C | 22% | 1025.5 hPa | - | - | - | - |
| 1777570259 | 16.11° C | 22% | 1025.4 hPa | - | - | - | - |
| 1777569359 | 16.11° C | 22% | 1025.5 hPa | - | - | - | - |
| 1777568459 | 16.67° C | 21% | 1025.4 hPa | - | - | - | - |
| 1777567559 | 16.11° C | 21% | 1025.4 hPa | - | - | - | - |
| 1777566658 | 16.67° C | 21% | 1025.6 hPa | - | - | - | - |
| 1777565758 | 16.67° C | 21% | 1025.5 hPa | - | - | - | - |
* Rain since midnight (hover to see other rain measurements)
** Current wind speed in m/s (hover to see current wind gust speed)